M I D A S
Marine Information and Data Acquisition System
Tripno 2285 of the Zeeleeuw from 2012-04-05 06:32:25 to 2012-04-05 14:15:10
Back to CruiseResearch ActivitiesStationsMapUnderway DataData graphs

EquipmentUnitsComments
TimeDGPSUTC
LatitudeDGPSDM.mWGS84
LongitudeDGPSDM.mWGS84
SpeedMeteo Stationm/sRelative wind speed
DirectionMeteo StationdegRelative wind direction
TemperatureMeteo Stationdeg CelciusAir temperature
PressureMeteo StationPaAtmospheric pressure
HumidityMeteo Station%Relative humidity
Missing or incorrect values are displayed as -999
Metereological data collected by the RV Zeeleeuw from 2012-04-05 06:34:02 to 2012-04-05 14:26:06
Time Latitude Longitude Speed Direction Temperature Pressure Humidity
2012-04-05 06:35 51°13.636 2°56.017 3 244 7 101680 50
2012-04-05 06:36 51°13.635 2°56.013 2.7 22 7 101680 51
2012-04-05 06:37 51°13.651 2°55.923 1.6 256 7 101680 51
2012-04-05 06:38 51°13.691 2°55.809 3.3 255 7 101680 48
2012-04-05 06:39 51°13.753 2°55.706 5.6 266 7 101680 51
2012-04-05 06:40 51°13.83 2°55.629 3.2 20 6.9 101690 50
2012-04-05 06:41 51°13.907 2°55.603 4.9 27 6.9 101700 49
2012-04-05 06:42 51°13.962 2°55.621 4.9 20 6.9 101690 50
2012-04-05 06:43 51°13.982 2°55.634 6 26 6.8 101690 50
2012-04-05 06:44 51°14.021 2°55.545 2.9 7 6.9 101690 51
2012-04-05 06:45 51°14.129 2°55.424 6 349 6.9 101680 50
2012-04-05 06:46 51°14.256 2°55.302 7.5 3 6.8 101680 49
2012-04-05 06:47 51°14.394 2°55.162 8 6 6.8 101680 51
2012-04-05 06:48 51°14.535 2°55.007 7 2 6.8 101670 51
2012-04-05 06:49 51°14.674 2°54.801 8.9 2 6.8 101660 52
2012-04-05 06:50 51°14.829 2°54.606 10.9 2 6.8 101650 51
2012-04-05 06:51 51°14.983 2°54.42 12.1 1 6.8 101660 51
2012-04-05 06:52 51°15.135 2°54.228 11.4 3 6.8 101650 52
2012-04-05 06:53 51°15.288 2°54.032 8.1 3 6.8 101670 51
2012-04-05 06:54 51°15.444 2°53.839 9 1 6.8 101660 51
2012-04-05 06:55 51°15.608 2°53.67 12.2 358 6.8 101660 51
2012-04-05 06:56 51°15.778 2°53.528 9.5 358 6.8 101650 52
2012-04-05 06:57 51°15.946 2°53.397 10.7 359 6.8 101640 51
2012-04-05 06:58 51°16.112 2°53.264 6.7 357 6.7 101660 51
2012-04-05 06:59 51°16.286 2°53.144 9.4 355 6.7 101670 51
2012-04-05 07:00 51°16.456 2°53.011 10 354 6.7 101680 52
2012-04-05 07:01 51°16.626 2°52.893 8.7 359 6.7 101670 51
2012-04-05 07:02 51°16.795 2°52.77 10 359 6.7 101680 51
2012-04-05 07:03 51°16.967 2°52.665 6.1 356 6.7 101680 52
2012-04-05 07:04 51°17.139 2°52.579 9.8 355 6.6 101680 51
2012-04-05 07:05 51°17.318 2°52.532 10.5 352 6.7 101680 52
2012-04-05 07:06 51°17.496 2°52.498 6.3 356 6.6 101680 52
2012-04-05 07:07 51°17.672 2°52.506 17.9 279 6.6 101670 52
2012-04-05 07:08 51°17.844 2°52.527 16.1 279 6.5 101680 51
2012-04-05 07:09 51°18.014 2°52.56 15.2 284 6.6 101670 52
2012-04-05 07:10 51°18.176 2°52.645 12.6 282 6.5 101660 51
2012-04-05 07:11 51°18.315 2°52.806 16.1 281 6.5 101690 52
2012-04-05 07:12 51°18.428 2°53.01 15.8 283 6.5 101680 51
2012-04-05 07:13 51°18.532 2°53.234 16.6 283 6.4 101700 52
2012-04-05 07:14 51°18.642 2°53.449 11 280 6.4 101700 51
2012-04-05 07:15 51°18.757 2°53.652 13.2 284 6.4 101710 52
2012-04-05 07:16 51°18.874 2°53.855 15.5 281 6.3 101700 51
2012-04-05 07:17 51°18.99 2°54.065 11.1 282 6.3 101710 51
2012-04-05 07:18 51°19.114 2°54.264 13.5 278 6.3 101710 50
2012-04-05 07:19 51°19.22 2°54.485 13.8 283 6.3 101690 51
2012-04-05 07:20 51°19.324 2°54.705 14.1 281 6.4 101700 52
2012-04-05 07:21 51°19.432 2°54.92 12.4 279 6.3 101690 51
2012-04-05 07:22 51°19.537 2°55.131 15.9 286 6.3 101710 52
2012-04-05 07:23 51°19.646 2°55.339 13.5 286 6.2 101730 51
2012-04-05 07:24 51°19.754 2°55.548 16.9 283 6.2 101720 51
2012-04-05 07:25 51°19.858 2°55.766 14.1 280 6.2 101720 51
2012-04-05 07:26 51°19.965 2°55.984 14.9 281 6.2 101730 50
2012-04-05 07:27 51°20.074 2°56.196 14 279 6.2 101730 50
2012-04-05 07:28 51°20.171 2°56.436 16.6 285 6.2 101730 51
2012-04-05 07:29 51°20.268 2°56.672 10.6 283 6.2 101720 51
2012-04-05 07:30 51°20.368 2°56.91 14.7 285 6.2 101720 52
2012-04-05 07:31 51°20.472 2°57.137 15.6 283 6.2 101730 51
2012-04-05 07:32 51°20.578 2°57.363 19.1 279 6.2 101730 51
2012-04-05 07:33 51°20.686 2°57.585 14.6 283 6.2 101720 52
2012-04-05 07:34 51°20.789 2°57.812 14.7 286 6.2 101720 51
2012-04-05 07:35 51°20.883 2°58.044 14.2 285 6.2 101710 52
2012-04-05 07:36 51°20.98 2°58.272 16.3 283 6.2 101720 52
2012-04-05 07:37 51°21.083 2°58.492 14.6 283 6.2 101730 51
2012-04-05 07:38 51°21.188 2°58.697 11.9 282 6.2 101720 52
2012-04-05 07:39 51°21.244 2°58.837 11.2 280 6.1 101730 51
2012-04-05 07:40 51°21.266 2°58.903 11.4 279 6.1 101730 52
2012-04-05 07:41 51°21.287 2°58.931 10.2 286 6.1 101720 51
2012-04-05 07:42 51°21.317 2°58.988 10.2 279 6.1 101720 51
2012-04-05 07:43 51°21.344 2°59.003 11.9 281 6 101730 52
2012-04-05 07:44 51°21.343 2°58.995 8.8 281 6 101720 51
2012-04-05 07:45 51°21.328 2°58.983 6.6 280 6 101730 52
2012-04-05 07:46 51°21.312 2°58.994 8.5 322 6 101720 51
2012-04-05 07:47 51°21.369 2°59.052 9.8 280 6.1 101720 52
2012-04-05 07:48 51°21.467 2°59.135 9.9 338 6 101720 52
2012-04-05 07:49 51°21.582 2°59.231 10.7 287 6.1 101730 51
2012-04-05 07:50 51°21.694 2°59.328 12.4 338 6.2 101730 52
2012-04-05 07:51 51°21.805 2°59.436 13.5 287 6.1 101720 52
2012-04-05 07:52 51°21.915 2°59.537 13.5 338 6.1 101720 52
2012-04-05 07:53 51°21.995 2°59.59 10 285 6 101730 52
2012-04-05 07:54 51°22.013 2°59.592 9.3 281 6 101730 52
2012-04-05 07:55 51°22.009 2°59.58 8.2 280 6 101730 52
2012-04-05 07:56 51°22 2°59.563 8.9 283 6 101740 52
2012-04-05 07:57 51°22.053 2°59.575 10.3 358 6 101720 52
2012-04-05 07:58 51°22.18 2°59.534 12.4 280 6 101720 52
2012-04-05 07:59 51°22.322 2°59.523 10.1 346 5.9 101730 51
2012-04-05 08:00 51°22.461 2°59.567 12.6 281 6 101730 51
2012-04-05 08:01 51°22.591 2°59.627 14 346 6 101710 52
2012-04-05 08:02 51°22.663 2°59.643 9 346 5.9 101730 51
2012-04-05 08:03 51°22.672 2°59.651 8.8 280 5.9 101730 53
2012-04-05 08:04 51°22.659 2°59.65 7 278 5.9 101740 51
2012-04-05 08:05 51°22.637 2°59.646 10.5 284 5.9 101750 52
2012-04-05 08:06 51°22.62 2°59.762 10 319 6 101740 51
2012-04-05 08:07 51°22.624 2°59.976 13.4 284 6 101730 52
2012-04-05 08:08 51°22.625 3°0.2 14.9 319 6 101730 52
2012-04-05 08:09 51°22.629 3°0.435 11.4 283 6 101740 51
2012-04-05 08:10 51°22.645 3°0.665 10.6 282 6.1 101730 52
2012-04-05 08:11 51°22.658 3°0.879 13 281 6.2 101730 52
2012-04-05 08:12 51°22.67 3°0.979 11.2 286 6.1 101740 53
2012-04-05 08:13 51°22.665 3°0.994 7.7 282 6.1 101750 51
2012-04-05 08:14 51°22.656 3°0.987 7.5 279 6 101740 51
2012-04-05 08:15 51°22.675 3°0.973 10.3 349 6 101740 52
2012-04-05 08:16 51°22.766 3°1.028 13.5 286 6 101740 52
2012-04-05 08:17 51°22.894 3°1.112 14.8 340 6 101740 52
2012-04-05 08:18 51°23.032 3°1.222 6.1 285 6 101740 52
2012-04-05 08:19 51°23.152 3°1.361 11.3 336 6.1 101740 52
2012-04-05 08:20 51°23.25 3°1.511 11.9 283 6 101740 51
2012-04-05 08:21 51°23.304 3°1.586 8.7 284 6 101750 51
2012-04-05 08:22 51°23.333 3°1.612 7 283 6 101740 51
2012-04-05 08:23 51°23.332 3°1.619 7.6 285 6.1 101750 53
2012-04-05 08:24 51°23.32 3°1.627 7 323 6 101760 52
2012-04-05 08:25 51°23.307 3°1.678 8.8 286 6 101760 52
2012-04-05 08:26 51°23.319 3°1.914 11 323 6 101740 50
2012-04-05 08:27 51°23.337 3°2.197 14.9 283 6 101730 51
2012-04-05 08:28 51°23.342 3°2.505 12 286 6.1 101730 51
2012-04-05 08:29 51°23.345 3°2.807 10 281 6.1 101730 50
2012-04-05 08:30 51°23.352 3°3.116 9.9 279 6.2 101750 50
2012-04-05 08:31 51°23.353 3°3.413 11.8 318 6.2 101750 51
2012-04-05 08:32 51°23.328 3°3.608 9.8 283 6.3 101750 52
2012-04-05 08:33 51°23.321 3°3.652 8.3 328 6.2 101740 50
2012-04-05 08:34 51°23.307 3°3.664 8.1 281 6.3 101750 51
2012-04-05 08:35 51°23.29 3°3.675 7.2 326 6.2 101760 50
2012-04-05 08:36 51°23.292 3°3.829 12.5 329 6.2 101740 50
2012-04-05 08:37 51°23.314 3°4.109 13.5 326 6.3 101740 51
2012-04-05 08:38 51°23.303 3°4.424 12.9 320 6.3 101730 50
2012-04-05 08:39 51°23.304 3°4.733 13 287 6.3 101740 52
2012-04-05 08:40 51°23.337 3°5.039 12.9 327 6.3 101730 51
2012-04-05 08:41 51°23.357 3°5.324 13.5 281 6.3 101740 51
2012-04-05 08:42 51°23.348 3°5.502 11.4 320 6.3 101750 50
2012-04-05 08:43 51°23.334 3°5.609 7 280 6.3 101760 51
2012-04-05 08:44 51°23.315 3°5.624 7.9 25 6.3 101760 51
2012-04-05 08:45 51°23.292 3°5.625 10.1 285 6.3 101760 52
2012-04-05 08:46 51°23.263 3°5.646 7.8 19 6.3 101760 50
2012-04-05 08:47 51°23.258 3°5.745 9.5 333 6.3 101750 52
2012-04-05 08:48 51°23.297 3°5.913 10.3 333 6.3 101740 51
2012-04-05 08:49 51°23.329 3°6.138 11.5 325 6.3 101740 51
2012-04-05 08:50 51°23.35 3°6.34 11 330 6.3 101760 51
2012-04-05 08:51 51°23.344 3°6.379 9 348 6.3 101760 51
2012-04-05 08:52 51°23.329 3°6.383 7.8 8 6.2 101750 50
2012-04-05 08:53 51°23.311 3°6.385 8.9 17 6.2 101770 51
2012-04-05 08:54 51°23.306 3°6.38 9.1 8 6.2 101760 49
2012-04-05 08:55 51°23.343 3°6.44 8.1 329 6.2 101750 51
2012-04-05 08:56 51°23.356 3°6.621 11.1 326 6.2 101740 51
2012-04-05 08:57 51°23.336 3°6.807 8.2 322 6.3 101760 51
2012-04-05 08:58 51°23.326 3°6.879 7 325 6.3 101770 51
2012-04-05 08:59 51°23.309 3°6.886 7.4 316 6.3 101770 49
2012-04-05 09:00 51°23.292 3°6.888 7.5 22 6.4 101760 51
2012-04-05 09:01 51°23.276 3°6.891 8.1 20 6.3 101760 51
2012-04-05 09:02 51°23.26 3°6.894 8.3 286 6.4 101770 50
2012-04-05 09:03 51°23.234 3°6.911 7.4 20 6.3 101770 50
2012-04-05 09:04 51°23.21 3°6.991 9.5 328 6.3 101760 50
2012-04-05 09:05 51°23.248 3°7.134 10.4 335 6.2 101730 49
2012-04-05 09:06 51°23.309 3°7.352 11.3 333 6.2 101750 50
2012-04-05 09:07 51°23.345 3°7.509 9.3 335 6.4 101770 51
2012-04-05 09:08 51°23.354 3°7.572 7.4 320 6.3 101750 52
2012-04-05 09:09 51°23.342 3°7.58 6.4 317 6.3 101760 52
2012-04-05 09:10 51°23.327 3°7.581 8.4 22 6.2 101760 51
2012-04-05 09:11 51°23.306 3°7.614 7.2 23 6.2 101760 51
2012-04-05 09:12 51°23.299 3°7.782 13.9 316 6.3 101750 52
2012-04-05 09:13 51°23.323 3°7.981 10.9 321 6.3 101750 52
2012-04-05 09:14 51°23.333 3°8.136 9.2 321 6.2 101760 53
2012-04-05 09:15 51°23.329 3°8.186 7.7 281 6.2 101770 52
2012-04-05 09:16 51°23.317 3°8.191 8.1 21 6.2 101770 52
2012-04-05 09:17 51°23.305 3°8.2 9.3 259 6.2 101770 53
2012-04-05 09:18 51°23.266 3°8.238 6.8 24 6.2 101770 51
2012-04-05 09:19 51°23.205 3°8.216 5.5 22 6.2 101780 52
2012-04-05 09:20 51°23.163 3°8.094 4.8 43 6.2 101780 52
2012-04-05 09:21 51°23.102 3°7.932 4.5 19 6.2 101790 52
2012-04-05 09:22 51°23.031 3°7.769 3.7 25 6.2 101780 52
2012-04-05 09:23 51°22.965 3°7.601 5.1 38 6.2 101780 54
2012-04-05 09:24 51°22.902 3°7.43 1.8 20 6.2 101780 54
2012-04-05 09:25 51°22.832 3°7.265 4.3 25 6.5 101780 54
2012-04-05 09:26 51°22.76 3°7.107 4.6 19 6.3 101780 51
2012-04-05 09:27 51°22.693 3°6.951 4.6 21 6.3 101780 53
2012-04-05 09:28 51°22.626 3°6.792 4.1 21 6.1 101770 51
2012-04-05 09:29 51°22.559 3°6.63 3.1 74 6.3 101790 53
2012-04-05 09:30 51°22.492 3°6.47 2.8 27 6.5 101780 52
2012-04-05 09:31 51°22.42 3°6.312 4.4 80 6.9 101770 50
2012-04-05 09:32 51°22.352 3°6.15 2.8 23 6.7 101780 47
2012-04-05 09:33 51°22.287 3°5.985 2.1 22 6.6 101780 49
2012-04-05 09:34 51°22.222 3°5.82 1.7 23 7 101790 49
2012-04-05 09:35 51°22.155 3°5.659 2.2 26 7.1 101780 50
2012-04-05 09:36 51°22.088 3°5.501 2.7 25 7.1 101780 50
2012-04-05 09:37 51°22.023 3°5.341 3 23 7.2 101790 50
2012-04-05 09:38 51°21.956 3°5.182 1.9 79 7.3 101780 49
2012-04-05 09:39 51°21.897 3°5.022 3.9 25 7.2 101780 48
2012-04-05 09:40 51°21.834 3°4.857 2.5 19 6.9 101780 49
2012-04-05 09:41 51°21.769 3°4.703 4.1 18 6.7 101780 51
2012-04-05 09:42 51°21.703 3°4.547 4.7 42 6.5 101780 51
2012-04-05 09:43 51°21.641 3°4.387 5.6 20 6.4 101770 52
2012-04-05 09:44 51°21.576 3°4.229 3.5 26 6.3 101770 51
2012-04-05 09:45 51°21.508 3°4.076 4.9 28 6.3 101770 52
2012-04-05 09:46 51°21.447 3°3.918 2.5 76 6.2 101780 52
2012-04-05 09:47 51°21.397 3°3.757 4.3 36 6.3 101770 51
2012-04-05 09:48 51°21.385 3°3.583 5.4 29 6.3 101760 51
2012-04-05 09:49 51°21.374 3°3.402 3 37 6.2 101770 51
2012-04-05 09:50 51°21.359 3°3.228 5.5 33 6.2 101770 51
2012-04-05 09:51 51°21.335 3°3.05 4.6 44 6.2 101770 51
2012-04-05 09:52 51°21.313 3°2.878 4.5 40 6.3 101770 51
2012-04-05 09:53 51°21.291 3°2.7 3.8 37 6.2 101780 52
2012-04-05 09:54 51°21.27 3°2.525 4.7 38 6.2 101770 51
2012-04-05 09:55 51°21.248 3°2.349 5.3 36 6.2 101770 51
2012-04-05 09:56 51°21.227 3°2.175 6.6 37 6.2 101770 52
2012-04-05 09:57 51°21.206 3°2.006 5.6 37 6.1 101780 51
2012-04-05 09:58 51°21.187 3°1.831 4.2 42 6.1 101770 50
2012-04-05 09:59 51°21.171 3°1.702 5.7 38 6.2 101790 52
2012-04-05 10:00 51°21.164 3°1.636 5.8 37 6.1 101770 52
2012-04-05 10:01 51°21.161 3°1.601 7.5 79 6.2 101760 53
2012-04-05 10:02 51°21.161 3°1.579 7.8 38 6.2 101760 52
2012-04-05 10:03 51°21.162 3°1.567 8.7 37 6.1 101760 51
2012-04-05 10:04 51°21.166 3°1.566 8.5 37 6.2 101760 52
2012-04-05 10:05 51°21.171 3°1.568 9 31 6.2 101770 52
2012-04-05 10:06 51°21.176 3°1.571 9 29 6.2 101760 51
2012-04-05 10:07 51°21.179 3°1.587 7.3 25 6.1 101760 52
2012-04-05 10:08 51°21.18 3°1.608 8.6 26 6.2 101760 53
2012-04-05 10:09 51°21.178 3°1.632 8 20 6.2 101750 52
2012-04-05 10:10 51°21.173 3°1.658 8.1 26 6.2 101750 51
2012-04-05 10:11 51°21.169 3°1.688 8.4 26 6.2 101760 52
2012-04-05 10:12 51°21.164 3°1.72 7.3 31 6.2 101750 52
2012-04-05 10:13 51°21.158 3°1.754 7.7 33 6.3 101750 53
2012-04-05 10:14 51°21.153 3°1.788 7.2 32 6.2 101740 50
2012-04-05 10:15 51°21.148 3°1.824 9.1 39 6.2 101750 52
2012-04-05 10:16 51°21.144 3°1.862 8.7 32 6.2 101750 52
2012-04-05 10:17 51°21.139 3°1.9 9.2 34 6.2 101740 52
2012-04-05 10:18 51°21.135 3°1.938 8.9 31 6.2 101740 52
2012-04-05 10:19 51°21.136 3°1.924 7.2 30 6.2 101750 52
2012-04-05 10:20 51°21.146 3°1.785 5.9 35 6.1 101760 52
2012-04-05 10:21 51°21.126 3°1.573 4.5 35 6.2 101770 53
2012-04-05 10:22 51°21.111 3°1.347 8 22 6.2 101770 51
2012-04-05 10:23 51°21.187 3°1.21 8.2 14 6.1 101750 52
2012-04-05 10:24 51°21.244 3°1.102 9.5 14 6.2 101760 53
2012-04-05 10:25 51°21.315 3°1.013 8.6 16 6.2 101750 53
2012-04-05 10:26 51°21.364 3°0.973 8.9 13 6.2 101760 52
2012-04-05 10:27 51°21.374 3°0.996 9 10 6.2 101760 53
2012-04-05 10:28 51°21.375 3°1.02 7 23 6.1 101760 51
2012-04-05 10:29 51°21.395 3°1.031 8.7 360 6.1 101750 52
2012-04-05 10:30 51°21.442 3°1.094 11.4 282 6.2 101760 51
2012-04-05 10:31 51°21.447 3°1.3 11.9 287 6.2 101780 52
2012-04-05 10:32 51°21.439 3°1.582 13.3 279 6.2 101760 51
2012-04-05 10:33 51°21.423 3°1.875 11.5 282 6.2 101770 51
2012-04-05 10:34 51°21.392 3°2.177 6.3 279 6.3 101770 51
2012-04-05 10:35 51°21.363 3°2.47 10.7 281 6.2 101750 51
2012-04-05 10:36 51°21.35 3°2.664 9.7 281 6.3 101750 52
2012-04-05 10:37 51°21.345 3°2.799 10.5 281 6.3 101770 52
2012-04-05 10:38 51°21.336 3°2.924 10 280 6.3 101780 50
2012-04-05 10:39 51°21.338 3°2.974 7.1 281 6.3 101760 52
2012-04-05 10:40 51°21.344 3°3 8.8 281 6.3 101790 51
2012-04-05 10:41 51°21.346 3°3.038 7.5 281 6.3 101780 51
2012-04-05 10:42 51°21.351 3°3.156 9.8 285 6.3 101760 52
2012-04-05 10:43 51°21.458 3°3.246 10.4 351 6.3 101740 51
2012-04-05 10:44 51°21.601 3°3.339 13 349 6.3 101750 52
2012-04-05 10:45 51°21.75 3°3.439 12.1 279 6.2 101740 51
2012-04-05 10:46 51°21.899 3°3.508 14.8 344 6.2 101740 51
2012-04-05 10:47 51°21.987 3°3.616 10.2 280 6.2 101760 51
2012-04-05 10:48 51°21.998 3°3.665 7.9 350 6.2 101760 51
2012-04-05 10:49 51°21.99 3°3.701 7.4 11 6.1 101750 50
2012-04-05 10:50 51°21.982 3°3.739 8.1 11 6.1 101760 50
2012-04-05 10:51 51°21.977 3°3.777 8.6 23 6.3 101760 53
2012-04-05 10:52 51°21.988 3°3.758 6.1 35 6.3 101750 52
2012-04-05 10:53 51°21.98 3°3.566 4.8 33 6.2 101770 51
2012-04-05 10:54 51°21.932 3°3.343 2.3 74 6.2 101770 50
2012-04-05 10:55 51°21.834 3°3.167 3.9 282 6.2 101770 51
2012-04-05 10:56 51°21.68 3°3.222 9.1 284 6.2 101770 51
2012-04-05 10:57 51°21.563 3°3.459 11.5 281 6.3 101780 51
2012-04-05 10:58 51°21.461 3°3.728 9.9 281 6.4 101760 51
2012-04-05 10:59 51°21.387 3°4.025 11 280 6.3 101760 51
2012-04-05 11:00 51°21.334 3°4.335 11.2 287 6.4 101780 51
2012-04-05 11:01 51°21.317 3°4.634 8.5 285 6.4 101760 51
2012-04-05 11:02 51°21.34 3°4.799 9.8 285 6.4 101770 51
2012-04-05 11:03 51°21.339 3°4.871 7.2 281 6.4 101780 50
2012-04-05 11:04 51°21.343 3°4.908 7.2 283 6.4 101780 51
2012-04-05 11:05 51°21.344 3°4.946 5.2 284 6.5 101780 51
2012-04-05 11:06 51°21.342 3°4.986 8.1 287 6.4 101790 51
2012-04-05 11:07 51°21.332 3°5.091 8.3 287 6.5 101770 51
2012-04-05 11:08 51°21.344 3°5.318 10.6 277 6.5 101760 52
2012-04-05 11:09 51°21.333 3°5.625 11.6 285 6.5 101760 50
2012-04-05 11:10 51°21.32 3°5.941 11 286 6.4 101760 48
2012-04-05 11:11 51°21.308 3°6.254 12.2 285 6.5 101760 49
2012-04-05 11:12 51°21.295 3°6.551 5 280 6.5 101750 50
2012-04-05 11:13 51°21.298 3°6.732 8.8 285 6.5 101770 50
2012-04-05 11:14 51°21.312 3°6.849 7.6 287 6.5 101760 49
2012-04-05 11:15 51°21.322 3°6.903 7.7 278 6.5 101760 50
2012-04-05 11:16 51°21.327 3°6.942 7.2 284 6.5 101770 50
2012-04-05 11:17 51°21.33 3°6.981 6.6 284 6.5 101780 49
2012-04-05 11:18 51°21.322 3°7.103 9.6 283 6.6 101770 50
2012-04-05 11:19 51°21.326 3°7.385 10 285 6.6 101760 49
2012-04-05 11:20 51°21.32 3°7.689 13.7 288 6.6 101750 49
2012-04-05 11:21 51°21.31 3°7.998 12.9 287 6.6 101760 50
2012-04-05 11:22 51°21.307 3°8.307 6 278 6.6 101750 49
2012-04-05 11:23 51°21.311 3°8.595 11.4 285 6.6 101760 50
2012-04-05 11:24 51°21.333 3°8.762 9.6 281 6.6 101750 49
2012-04-05 11:25 51°21.344 3°8.811 8.3 282 6.6 101760 50
2012-04-05 11:26 51°21.356 3°8.834 7.9 283 6.5 101780 48
2012-04-05 11:27 51°21.364 3°8.861 5.8 278 6.6 101780 50
2012-04-05 11:28 51°21.364 3°8.913 8.9 285 6.6 101770 50
2012-04-05 11:29 51°21.389 3°9.024 8.4 281 6.6 101760 50
2012-04-05 11:30 51°21.46 3°9.042 8.9 18 6.6 101740 49
2012-04-05 11:31 51°21.508 3°8.88 5.1 19 6.5 101770 50
2012-04-05 11:32 51°21.562 3°8.612 5.7 5 6.5 101760 50
2012-04-05 11:33 51°21.634 3°8.34 6.9 14 6.5 101760 50
2012-04-05 11:34 51°21.698 3°8.066 6.6 9 6.4 101770 50
2012-04-05 11:35 51°21.771 3°7.798 7.2 16 6.4 101760 50
2012-04-05 11:36 51°21.843 3°7.535 7.3 10 6.4 101760 50
2012-04-05 11:37 51°21.903 3°7.261 4.7 6 6.4 101770 51
2012-04-05 11:38 51°21.944 3°6.983 4.4 21 6.4 101760 50
2012-04-05 11:39 51°22.001 3°6.776 9.2 10 6.4 101770 49
2012-04-05 11:40 51°22.043 3°6.776 6.7 6 6.4 101760 50
2012-04-05 11:41 51°22.022 3°6.813 6.7 22 6.4 101760 50
2012-04-05 11:42 51°22.001 3°6.869 7.7 23 6.4 101750 48
2012-04-05 11:43 51°22.004 3°6.898 7 22 6.4 101750 50
2012-04-05 11:44 51°22.005 3°6.931 7.4 29 6.4 101760 50
2012-04-05 11:45 51°22.032 3°6.937 7.8 359 6.5 101760 51
2012-04-05 11:46 51°22.086 3°7.002 9.5 280 6.4 101760 51
2012-04-05 11:47 51°22.079 3°7.129 9.8 280 6.5 101760 51
2012-04-05 11:48 51°22.001 3°7.318 10.3 286 6.6 101760 50
2012-04-05 11:49 51°21.969 3°7.526 8.7 281 6.6 101750 50
2012-04-05 11:50 51°22.024 3°7.62 7 357 6.6 101760 49
2012-04-05 11:51 51°22.043 3°7.65 5 19 6.5 101760 48
2012-04-05 11:52 51°22.052 3°7.677 7.1 29 6.6 101770 50
2012-04-05 11:53 51°22.058 3°7.7 6.3 32 6.5 101760 49
2012-04-05 11:54 51°22.064 3°7.725 5.8 34 6.5 101760 50
2012-04-05 11:55 51°22.067 3°7.753 6.3 35 6.5 101760 50
2012-04-05 11:56 51°22.059 3°7.827 7.2 77 6.5 101760 50
2012-04-05 11:57 51°22.06 3°7.914 5.6 80 6.5 101760 51
2012-04-05 11:58 51°22.046 3°7.928 5.7 278 6.5 101780 48
2012-04-05 11:59 51°22.006 3°8.012 9.1 282 6.6 101790 50
2012-04-05 12:00 51°22.001 3°8.157 7.9 285 6.6 101760 50
2012-04-05 12:01 51°22.013 3°8.21 5.8 328 6.6 101770 50
2012-04-05 12:02 51°22.01 3°8.229 6 280 6.6 101770 50
2012-04-05 12:03 51°22.009 3°8.246 6.5 23 6.6 101780 50
2012-04-05 12:04 51°22.009 3°8.322 8 280 6.6 101780 50
2012-04-05 12:05 51°22.002 3°8.502 9.4 286 6.7 101770 50
2012-04-05 12:06 51°21.991 3°8.695 8 279 6.6 101780 48
2012-04-05 12:07 51°22.01 3°8.807 6.5 286 6.6 101770 49
2012-04-05 12:08 51°22.011 3°8.834 6.2 280 6.6 101780 49
2012-04-05 12:09 51°22.011 3°8.849 6 284 6.6 101780 48
2012-04-05 12:10 51°22.013 3°8.871 6.8 284 6.6 101790 48
2012-04-05 12:11 51°22.005 3°8.953 7.3 278 6.7 101780 48
2012-04-05 12:12 51°21.981 3°9.095 9.6 285 6.7 101780 48
2012-04-05 12:13 51°21.956 3°9.251 10.3 285 6.7 101770 49
2012-04-05 12:14 51°21.977 3°9.401 8.4 285 6.7 101780 48
2012-04-05 12:15 51°22.012 3°9.493 7 337 6.7 101790 49
2012-04-05 12:16 51°22.017 3°9.516 4.5 285 6.7 101780 48
2012-04-05 12:17 51°22.017 3°9.533 5 286 6.7 101780 49
2012-04-05 12:18 51°22.015 3°9.548 6.9 285 6.7 101770 50
2012-04-05 12:19 51°22.029 3°9.566 8.9 8 6.7 101770 49
2012-04-05 12:20 51°22.06 3°9.501 4.3 24 6.7 101780 49
2012-04-05 12:21 51°22.091 3°9.289 5.6 7 6.7 101780 50
2012-04-05 12:22 51°22.178 3°9.083 6.6 7 6.7 101780 50
2012-04-05 12:23 51°22.266 3°8.87 5.5 6 6.6 101770 49
2012-04-05 12:24 51°22.352 3°8.655 6.6 7 6.6 101780 50
2012-04-05 12:25 51°22.441 3°8.439 7.8 18 6.7 101770 52
2012-04-05 12:26 51°22.509 3°8.23 7.7 4 6.7 101780 50
2012-04-05 12:27 51°22.617 3°8.136 7.7 356 6.6 101770 48
2012-04-05 12:28 51°22.681 3°8.157 9 280 6.6 101780 51
2012-04-05 12:29 51°22.687 3°8.179 6.6 283 6.5 101780 52
2012-04-05 12:30 51°22.685 3°8.189 5.6 284 6.6 101780 52
2012-04-05 12:31 51°22.694 3°8.21 10.8 351 6.7 101780 52
2012-04-05 12:32 51°22.726 3°8.195 8.7 18 6.6 101760 53
2012-04-05 12:33 51°22.757 3°8.064 6.5 21 6.5 101770 52
2012-04-05 12:34 51°22.728 3°7.863 4.8 32 6.5 101770 54
2012-04-05 12:35 51°22.667 3°7.664 4.6 29 6.4 101780 53
2012-04-05 12:36 51°22.626 3°7.44 6.8 24 6.4 101770 54
2012-04-05 12:37 51°22.607 3°7.212 7.1 25 6.4 101780 53
2012-04-05 12:38 51°22.582 3°6.988 5.2 17 6.4 101770 52
2012-04-05 12:39 51°22.567 3°6.757 7.3 21 6.4 101770 52
2012-04-05 12:40 51°22.562 3°6.523 6.4 19 6.4 101770 53
2012-04-05 12:41 51°22.558 3°6.294 8.1 19 6.4 101770 53
2012-04-05 12:42 51°22.559 3°6.063 7.1 21 6.4 101770 52
2012-04-05 12:43 51°22.568 3°5.833 7.4 16 6.3 101780 52
2012-04-05 12:44 51°22.581 3°5.651 5.6 24 6.4 101770 52
2012-04-05 12:45 51°22.63 3°5.573 9.8 350 6.4 101760 52
2012-04-05 12:46 51°22.68 3°5.609 8.3 328 6.4 101770 51
2012-04-05 12:47 51°22.681 3°5.622 9 22 6.3 101760 52
2012-04-05 12:48 51°22.679 3°5.629 9.8 25 6.4 101780 52
2012-04-05 12:49 51°22.682 3°5.68 11.3 23 6.4 101770 52
2012-04-05 12:50 51°22.743 3°5.737 11.5 354 6.4 101760 51
2012-04-05 12:51 51°22.799 3°5.636 7.6 19 6.4 101760 52
2012-04-05 12:52 51°22.833 3°5.427 8 21 6.4 101760 53
2012-04-05 12:53 51°22.835 3°5.184 7.4 24 6.4 101770 53
2012-04-05 12:54 51°22.829 3°4.923 7.8 21 6.3 101770 52
2012-04-05 12:55 51°22.83 3°4.662 7.7 19 6.3 101770 52
2012-04-05 12:56 51°22.827 3°4.39 9.7 19 6.3 101760 53
2012-04-05 12:57 51°22.834 3°4.128 8.1 17 6.2 101760 53
2012-04-05 12:58 51°22.85 3°3.855 9.5 20 6.2 101770 53
2012-04-05 12:59 51°22.852 3°3.59 7.2 21 6.3 101770 53
2012-04-05 13:00 51°22.837 3°3.326 8.7 21 6.3 101770 53
2012-04-05 13:01 51°22.842 3°3.058 8.9 20 6.3 101770 54
2012-04-05 13:02 51°22.83 3°2.824 5.4 20 6.3 101770 53
2012-04-05 13:03 51°22.756 3°2.778 4.1 24 6.3 101780 52
2012-04-05 13:04 51°22.688 3°2.751 6.8 270 6.5 101770 52
2012-04-05 13:05 51°22.66 3°2.851 9.9 20 6.5 101790 53
2012-04-05 13:06 51°22.668 3°2.919 9.5 285 6.5 101780 52
2012-04-05 13:07 51°22.671 3°2.928 8.5 252 6.6 101790 52
2012-04-05 13:08 51°22.675 3°2.94 9.2 283 6.6 101790 53
2012-04-05 13:09 51°22.677 3°2.953 6.4 270 6.5 101790 52
2012-04-05 13:10 51°22.674 3°2.975 5.5 268 6.5 101790 53
2012-04-05 13:11 51°22.67 3°3.001 9.1 262 6.5 101790 52
2012-04-05 13:12 51°22.65 3°3.036 7 270 6.5 101780 53
2012-04-05 13:13 51°22.605 3°2.982 7.1 41 6.5 101770 52
2012-04-05 13:14 51°22.502 3°2.798 3.3 80 6.4 101770 52
2012-04-05 13:15 51°22.371 3°2.592 3.5 40 6.4 101780 51
2012-04-05 13:16 51°22.27 3°2.337 4.7 33 6.4 101770 52
2012-04-05 13:17 51°22.185 3°2.073 4 26 6.4 101770 52
2012-04-05 13:18 51°22.094 3°1.815 4.7 37 6.5 101770 52
2012-04-05 13:19 51°21.999 3°1.559 4.6 29 6.4 101770 53
2012-04-05 13:20 51°21.907 3°1.308 4.5 32 6.4 101770 53
2012-04-05 13:21 51°21.819 3°1.041 4.4 30 6.4 101770 52
2012-04-05 13:22 51°21.726 3°0.784 4.4 34 6.5 101780 52
2012-04-05 13:23 51°21.63 3°0.53 4.8 35 6.5 101760 52
2012-04-05 13:24 51°21.539 3°0.273 3.7 26 6.5 101770 52
2012-04-05 13:25 51°21.449 3°0.006 4.2 36 6.5 101780 54
2012-04-05 13:26 51°21.355 2°59.748 4.6 32 6.5 101770 54
2012-04-05 13:27 51°21.262 2°59.489 5.1 28 6.5 101770 54
2012-04-05 13:28 51°21.17 2°59.226 6.2 31 6.5 101780 54
2012-04-05 13:29 51°21.076 2°58.966 6 34 6.5 101780 52
2012-04-05 13:30 51°20.982 2°58.698 3.4 33 6.5 101780 52
2012-04-05 13:31 51°20.889 2°58.439 3.6 32 6.4 101780 52
2012-04-05 13:32 51°20.792 2°58.175 3.3 23 6.4 101780 53
2012-04-05 13:33 51°20.692 2°57.915 2.8 36 6.4 101780 53
2012-04-05 13:34 51°20.599 2°57.643 3.4 36 6.5 101780 53
2012-04-05 13:35 51°20.487 2°57.395 3 75 6.5 101780 52
2012-04-05 13:36 51°20.355 2°57.172 2.5 39 6.5 101780 54
2012-04-05 13:37 51°20.22 2°56.954 4.1 21 6.5 101780 52
2012-04-05 13:38 51°20.09 2°56.732 2.5 35 6.4 101780 53
2012-04-05 13:39 51°19.961 2°56.502 1.6 21 6.4 101780 52
2012-04-05 13:40 51°19.831 2°56.282 2.6 35 6.5 101780 52
2012-04-05 13:41 51°19.706 2°56.043 3.1 25 6.5 101780 53
2012-04-05 13:42 51°19.579 2°55.814 4.4 32 6.5 101780 52
2012-04-05 13:43 51°19.45 2°55.578 4.4 42 6.5 101780 52
2012-04-05 13:44 51°19.324 2°55.343 3.3 74 6.4 101770 53
2012-04-05 13:45 51°19.198 2°55.113 3.3 37 6.4 101780 52
2012-04-05 13:46 51°19.069 2°54.886 3.1 39 6.4 101770 51
2012-04-05 13:47 51°18.939 2°54.65 4.1 40 6.4 101770 52
2012-04-05 13:48 51°18.813 2°54.411 3.7 78 6.4 101770 52
2012-04-05 13:49 51°18.682 2°54.173 2.6 77 6.4 101780 52
2012-04-05 13:50 51°18.546 2°53.95 1.7 75 6.5 101770 52
2012-04-05 13:51 51°18.391 2°53.758 2.5 76 6.6 101770 54
2012-04-05 13:52 51°18.238 2°53.56 2.4 80 6.7 101770 53
2012-04-05 13:53 51°18.087 2°53.362 1.1 77 6.8 101760 51
2012-04-05 13:54 51°17.931 2°53.165 2.3 77 6.8 101760 52
2012-04-05 13:55 51°17.778 2°52.968 2.9 76 6.8 101760 52
2012-04-05 13:56 51°17.621 2°52.782 3.6 75 6.7 101770 53
2012-04-05 13:57 51°17.451 2°52.609 4 81 6.9 101770 51
2012-04-05 13:58 51°17.274 2°52.49 3.5 79 6.8 101770 51
2012-04-05 13:59 51°17.081 2°52.439 3.6 280 6.7 101770 52
2012-04-05 14:00 51°16.89 2°52.498 7.9 285 6.7 101760 53
2012-04-05 14:01 51°16.71 2°52.593 9 282 6.7 101750 52
2012-04-05 14:02 51°16.525 2°52.715 7.1 280 6.7 101760 53
2012-04-05 14:03 51°16.351 2°52.873 7.4 281 6.8 101760 52
2012-04-05 14:04 51°16.177 2°53.028 7.7 283 6.9 101760 52
2012-04-05 14:05 51°16.014 2°53.201 9.8 281 6.9 101760 53
2012-04-05 14:06 51°15.849 2°53.388 9.4 283 7 101760 51
2012-04-05 14:07 51°15.693 2°53.583 9.5 286 7 101740 52
2012-04-05 14:08 51°15.532 2°53.775 9.2 281 7 101760 53
2012-04-05 14:09 51°15.37 2°53.964 8.5 285 7 101750 53
2012-04-05 14:10 51°15.215 2°54.162 8.4 278 7 101760 53
2012-04-05 14:11 51°15.056 2°54.352 10.8 286 7 101740 52
2012-04-05 14:12 51°14.902 2°54.554 9 287 7 101760 53
2012-04-05 14:13 51°14.746 2°54.755 8.6 287 7 101730 53
2012-04-05 14:14 51°14.587 2°54.938 8.4 282 7 101740 52
2012-04-05 14:15 51°14.42 2°55.128 10.6 279 7 101740 52
2012-04-05 14:16 51°14.272 2°55.282 8.9 283 7 101740 52
2012-04-05 14:17 51°14.133 2°55.396 6.9 287 6.9 101750 53
2012-04-05 14:18 51°14.016 2°55.481 7 282 6.9 101760 52
2012-04-05 14:19 51°13.907 2°55.562 5.8 284 6.9 101750 53
2012-04-05 14:20 51°13.818 2°55.637 3.6 281 6.9 101770 53
2012-04-05 14:21 51°13.755 2°55.719 5.5 285 6.9 101760 51
2012-04-05 14:22 51°13.703 2°55.815 6.8 285 7 101750 52
2012-04-05 14:23 51°13.661 2°55.908 5.4 285 7 101750 52
2012-04-05 14:24 51°13.641 2°55.993 5.7 281 7 101750 52
2012-04-05 14:25 51°13.633 2°56.015 5.1 285 7.1 101760 51